Location: Four Corners
(38.2757°N, 122.4608°W)
Time: 11:07:53
(UTC+00:00)

Cosmos 1908 Rocket - Pass Details

Date: 08 December 2019
Orbit: 605 x 633 km, 82.5° (Epoch: 22 January)

Event Time Altitude Azimuth Distance (km) Brightness Sun altitude
Rises 02:14:51 0° 355° (N) 2,907 6.9 -16.3°
Reaches altitude 10° 02:17:06 10° 358° (N) 1,991 6.0 -16.8°
Maximum altitude 02:21:30 69° 82° (E) 660 3.4 -17.6°
Drops below altitude 10° 02:25:49 10° 166° (SSE) 1,960 6.1 -18.4°
Sets 02:28:02 0° 168° (SSE) 2,855 7.0 -18.8°
